IZA306 USII-ULLI

Flight info

Callsign IZA306
Flight time 1h 57m
Altitude 34000
Route RULEN1H/19 RULEN N984 UDREM L93 SONAT M60 APSAS L259 PRIBI P979 BEPOL BEPOL1V
Aircraft B738/M-SDE2E3FGHIRWXY/LB1

Departure

Time 2026-04-21 19:15
Airport Izhevsk Airport (USII)

Arrival

Time 2026-04-21 21:12
Airport Pulkovo Airport (ULLI)
Time Latitude Longitude Altitude Speed Heading
2026-04-21 18:50 56.83016 53.45206 536 ft 0 kts 206°
2026-04-21 19:07 56.83015 53.45206 536 ft 0 kts 206°
2026-04-21 19:08 56.83000 53.45192 537 ft 7 kts 206°
2026-04-21 19:08 56.82932 53.45174 537 ft 14 kts 141°
2026-04-21 19:08 56.82885 53.45354 537 ft 12 kts 94°
2026-04-21 19:08 56.82943 53.45441 536 ft 8 kts 33°
2026-04-21 19:09 56.82947 53.45532 536 ft 8 kts 114°
2026-04-21 19:09 56.82925 53.45620 535 ft 8 kts 114°
2026-04-21 19:09 56.82910 53.45718 535 ft 8 kts 71°
2026-04-21 19:09 56.82957 53.45780 534 ft 9 kts 25°
2026-04-21 19:10 56.83033 53.45845 533 ft 16 kts 25°
2026-04-21 19:10 56.83151 53.45946 533 ft 22 kts 25°
2026-04-21 19:10 56.83308 53.46080 533 ft 28 kts 25°
2026-04-21 19:10 56.83487 53.46231 530 ft 28 kts 26°
2026-04-21 19:11 56.83657 53.46376 528 ft 26 kts 25°
2026-04-21 19:11 56.83817 53.46513 528 ft 25 kts 25°
2026-04-21 19:11 56.83967 53.46640 527 ft 23 kts 25°
2026-04-21 19:11 56.84110 53.46762 523 ft 22 kts 25°
2026-04-21 19:12 56.84203 53.46841 521 ft 22 kts 25°
2026-04-21 19:12 56.84382 53.46994 520 ft 21 kts 25°
2026-04-21 19:12 56.84507 53.47032 518 ft 11 kts
2026-04-21 19:12 56.84516 53.47107 519 ft 7 kts 152°
2026-04-21 19:13 56.84472 53.47070 519 ft 7 kts 206°
2026-04-21 19:13 56.84468 53.47067 519 ft 0 kts 206°
2026-04-21 19:14 56.84467 53.47066 519 ft 2 kts 206°
2026-04-21 19:14 56.84261 53.46889 520 ft 69 kts 205°
2026-04-21 19:14 56.83631 53.46353 527 ft 131 kts 205°
2026-04-21 19:14 56.82637 53.45493 622 ft 178 kts 206°
2026-04-21 19:15 56.81541 53.44551 1707 ft 158 kts 207°
2026-04-21 19:15 56.80576 53.43855 2836 ft 147 kts 204°
2026-04-21 19:15 56.79553 53.43110 3123 ft 171 kts 205°
2026-04-21 19:15 56.78439 53.42049 3348 ft 191 kts 227°
2026-04-21 19:16 56.77936 53.39756 3518 ft 211 kts 269°
2026-04-21 19:16 56.78407 53.37128 3847 ft 230 kts 297°
2026-04-21 19:16 56.79349 53.34586 4141 ft 251 kts 303°
2026-04-21 19:16 56.80404 53.32043 4787 ft 257 kts 304°
2026-04-21 19:17 56.82608 53.26809 6260 ft 262 kts 304°
2026-04-21 19:17 56.83718 53.24145 6941 ft 265 kts 303°
2026-04-21 19:17 56.84838 53.21438 7631 ft 269 kts 303°
2026-04-21 19:18 56.85965 53.18694 8343 ft 271 kts 303°
2026-04-21 19:18 56.87103 53.15912 9047 ft 274 kts 303°
2026-04-21 19:18 56.88249 53.13095 9710 ft 278 kts 303°
2026-04-21 19:18 56.89424 53.10193 10044 ft 293 kts 303°
2026-04-21 19:19 56.90678 53.07081 10203 ft 313 kts 304°
2026-04-21 19:19 56.91991 53.03819 10460 ft 329 kts 304°
2026-04-21 19:19 56.93363 53.00407 10989 ft 335 kts 304°
2026-04-21 19:19 56.94751 52.96953 11632 ft 338 kts 304°
2026-04-21 19:20 56.96152 52.93463 12315 ft 341 kts 304°
2026-04-21 19:20 56.97565 52.89934 12978 ft 345 kts 305°
2026-04-21 19:20 56.98991 52.86364 13616 ft 349 kts 305°
2026-04-21 19:20 57.00432 52.82751 14245 ft 352 kts 305°
2026-04-21 19:21 57.01880 52.79114 14913 ft 355 kts 305°
2026-04-21 19:21 57.03340 52.75442 15572 ft 357 kts 305°
2026-04-21 19:21 57.04809 52.71738 16228 ft 360 kts 305°
2026-04-21 19:21 57.06293 52.67993 16841 ft 364 kts 306°
2026-04-21 19:22 57.07789 52.64209 17466 ft 367 kts 306°
2026-04-21 19:22 57.09297 52.60391 18076 ft 371 kts 306°
2026-04-21 19:22 57.10818 52.56532 18604 ft 374 kts 306°
2026-04-21 19:22 57.12352 52.52634 19155 ft 377 kts 306°
2026-04-21 19:23 57.13374 52.50035 19500 ft 379 kts 306°
2026-04-21 19:23 57.15431 52.44794 20181 ft 383 kts 307°
2026-04-21 19:23 57.16998 52.40792 20701 ft 386 kts 307°
2026-04-21 19:23 57.18577 52.36755 21230 ft 389 kts 307°
2026-04-21 19:24 57.20166 52.32684 21742 ft 392 kts 307°
2026-04-21 19:24 57.21761 52.28590 22237 ft 395 kts 307°
2026-04-21 19:24 57.22824 52.25860 22570 ft 397 kts 307°
2026-04-21 19:24 57.24441 52.21699 23056 ft 399 kts 308°
2026-04-21 19:25 57.26066 52.17510 23469 ft 402 kts 308°
2026-04-21 19:25 57.27698 52.13294 23845 ft 405 kts 308°
2026-04-21 19:25 57.29341 52.09042 24213 ft 408 kts 307°
2026-04-21 19:25 57.30995 52.04756 24579 ft 411 kts 307°
2026-04-21 19:26 57.32658 52.00438 24942 ft 413 kts 307°
2026-04-21 19:26 57.34334 51.96078 25296 ft 416 kts 307°
2026-04-21 19:26 57.36019 51.91687 25636 ft 419 kts 307°
2026-04-21 19:26 57.37715 51.87259 25979 ft 422 kts 307°
2026-04-21 19:27 57.39416 51.82809 26315 ft 424 kts 307°
2026-04-21 19:27 57.41128 51.78323 26634 ft 427 kts 307°
2026-04-21 19:27 57.42849 51.73807 26950 ft 430 kts 307°
2026-04-21 19:27 57.44555 51.69318 27260 ft 433 kts 306°
2026-04-21 19:28 57.46293 51.64738 27573 ft 435 kts 306°
2026-04-21 19:28 57.48039 51.60129 27875 ft 438 kts 306°
2026-04-21 19:28 57.49795 51.55483 28165 ft 440 kts 306°
2026-04-21 19:28 57.51561 51.50801 28446 ft 443 kts 306°
2026-04-21 19:29 57.53335 51.46089 28751 ft 445 kts 306°
2026-04-21 19:29 57.55110 51.41366 29167 ft 444 kts 306°
2026-04-21 19:29 57.56877 51.36655 29617 ft 443 kts 305°
2026-04-21 19:29 57.58639 51.31947 29968 ft 442 kts 305°
2026-04-21 19:30 57.60395 51.27246 30248 ft 443 kts 305°
2026-04-21 19:30 57.62155 51.22527 30524 ft 443 kts 305°
2026-04-21 19:30 57.63915 51.17797 30845 ft 443 kts 305°
2026-04-21 19:30 57.65668 51.13077 31155 ft 442 kts 305°
2026-04-21 19:31 57.67416 51.08361 31441 ft 442 kts 304°
2026-04-21 19:31 57.69164 51.03637 31720 ft 442 kts 304°
2026-04-21 19:31 57.70913 50.98899 32007 ft 442 kts 304°
2026-04-21 19:31 57.72658 50.94166 32296 ft 442 kts 304°
2026-04-21 19:32 57.74402 50.89423 32561 ft 442 kts 304°
2026-04-21 19:32 57.76121 50.84741 32823 ft 442 kts 304°
2026-04-21 19:32 57.77864 50.79982 33095 ft 442 kts 304°
2026-04-21 19:32 57.79608 50.75210 33350 ft 443 kts 304°
2026-04-21 19:33 57.81346 50.70447 33595 ft 443 kts 304°
2026-04-21 19:33 57.83087 50.65666 33705 ft 444 kts 304°
2026-04-21 19:33 57.86685 50.55754 33691 ft 443 kts 303°
2026-04-21 19:34 57.90143 50.46190 33716 ft 440 kts 303°
2026-04-21 19:34 57.93571 50.36672 33710 ft 438 kts 303°
2026-04-21 19:35 57.98685 50.22399 33706 ft 436 kts 303°
2026-04-21 19:36 58.02051 50.12959 33716 ft 436 kts 303°
2026-04-21 19:36 58.05427 50.03452 33717 ft 436 kts 303°
2026-04-21 19:37 58.08801 49.93913 33730 ft 437 kts 303°
2026-04-21 19:37 58.12174 49.84338 33725 ft 438 kts 303°
2026-04-21 19:38 58.15549 49.74720 33731 ft 438 kts 303°
2026-04-21 19:38 58.18348 49.66711 33738 ft 439 kts 303°
2026-04-21 19:39 58.22267 49.55456 33733 ft 440 kts 303°
2026-04-21 19:39 58.25627 49.45761 33744 ft 440 kts 303°
2026-04-21 19:40 58.28991 49.36017 33741 ft 440 kts 303°
2026-04-21 19:40 58.32341 49.26274 33745 ft 440 kts 303°
2026-04-21 19:41 58.35680 49.16523 33748 ft 439 kts 303°
2026-04-21 19:41 58.39004 49.06775 33744 ft 438 kts 303°
2026-04-21 19:42 58.42318 48.97016 33754 ft 438 kts 303°
2026-04-21 19:42 58.45597 48.87320 33753 ft 437 kts 303°
2026-04-21 19:43 58.48883 48.77565 33758 ft 436 kts 303°
2026-04-21 19:43 58.52159 48.67795 33762 ft 436 kts 303°
2026-04-21 19:44 58.55425 48.58020 33768 ft 435 kts 303°
2026-04-21 19:44 58.58681 48.48232 33770 ft 435 kts 303°
2026-04-21 19:45 58.61913 48.38476 33774 ft 435 kts 303°
2026-04-21 19:45 58.65154 48.28651 33777 ft 435 kts 303°
2026-04-21 19:46 58.68392 48.18797 33779 ft 435 kts 302°
2026-04-21 19:46 58.71621 48.08928 33784 ft 436 kts 302°
2026-04-21 19:47 58.74819 47.99113 33780 ft 436 kts 302°
2026-04-21 19:47 58.78031 47.89211 33783 ft 436 kts 302°
2026-04-21 19:48 58.81245 47.79265 33794 ft 436 kts 302°
2026-04-21 19:48 58.84448 47.69307 33795 ft 436 kts 302°
2026-04-21 19:49 58.87649 47.59316 33797 ft 437 kts 302°
2026-04-21 19:49 58.90837 47.49320 33797 ft 437 kts 302°
2026-04-21 19:50 58.93482 47.40996 33801 ft 437 kts 302°
2026-04-21 19:50 58.97192 47.29270 33805 ft 437 kts 302°
2026-04-21 19:51 59.00358 47.19216 33808 ft 436 kts 302°
2026-04-21 19:51 59.03491 47.09223 33808 ft 436 kts 302°
2026-04-21 19:52 59.06643 46.99129 33810 ft 436 kts 302°
2026-04-21 19:52 59.09782 46.89029 33809 ft 436 kts 302°
2026-04-21 19:53 59.12913 46.78916 33808 ft 436 kts 302°
2026-04-21 19:53 59.16037 46.68780 33818 ft 436 kts 302°
2026-04-21 19:54 59.19152 46.58626 33814 ft 436 kts 302°
2026-04-21 19:54 59.22237 46.48529 33813 ft 436 kts 302°
2026-04-21 19:55 59.25337 46.38336 33818 ft 436 kts 302°
2026-04-21 19:55 59.28428 46.28130 33815 ft 436 kts 301°
2026-04-21 19:56 59.31512 46.17901 33817 ft 436 kts 301°
2026-04-21 19:56 59.34587 46.07659 33819 ft 436 kts 301°
2026-04-21 19:57 59.37655 45.97393 33821 ft 436 kts 301°
2026-04-21 19:57 59.40714 45.87111 33823 ft 436 kts 301°
2026-04-21 19:58 59.43746 45.76874 33823 ft 436 kts 301°
2026-04-21 19:58 59.46795 45.66537 33827 ft 436 kts 301°
2026-04-21 19:59 59.49836 45.56181 33830 ft 436 kts 301°
2026-04-21 19:59 59.52047 45.45070 33832 ft 439 kts 283°
2026-04-21 20:00 59.52847 45.33139 33831 ft 440 kts 278°
2026-04-21 20:00 59.53520 45.21217 33837 ft 440 kts 278°
2026-04-21 20:01 59.54232 45.09242 33836 ft 440 kts 278°
2026-04-21 20:01 59.54959 44.97268 33838 ft 440 kts 278°
2026-04-21 20:02 59.55558 44.87303 33842 ft 440 kts 278°
2026-04-21 20:02 59.56266 44.75315 33849 ft 440 kts 278°
2026-04-21 20:03 59.57075 44.63355 33849 ft 440 kts 280°
2026-04-21 20:03 59.57955 44.51425 33846 ft 440 kts 280°
2026-04-21 20:04 59.58811 44.39473 33850 ft 440 kts 279°
2026-04-21 20:04 59.59643 44.27512 33850 ft 440 kts 279°
2026-04-21 20:05 59.60464 44.15552 33853 ft 440 kts 279°
2026-04-21 20:05 59.61273 44.03568 33856 ft 440 kts 279°
2026-04-21 20:06 59.62069 43.91588 33863 ft 440 kts 279°
2026-04-21 20:06 59.62849 43.79671 33862 ft 440 kts 279°
2026-04-21 20:07 59.63625 43.67675 33861 ft 440 kts 279°
2026-04-21 20:07 59.64388 43.55689 33865 ft 440 kts 279°
2026-04-21 20:08 59.65142 43.43683 33867 ft 440 kts 279°
2026-04-21 20:08 59.65886 43.31660 33865 ft 440 kts 278°
2026-04-21 20:09 59.66618 43.19636 33871 ft 440 kts 278°
2026-04-21 20:09 59.67341 43.07590 33869 ft 441 kts 278°
2026-04-21 20:10 59.68047 42.95614 33872 ft 441 kts 278°
2026-04-21 20:10 59.68748 42.83557 33880 ft 441 kts 278°
2026-04-21 20:11 59.69439 42.71491 33870 ft 441 kts 278°
2026-04-21 20:11 59.70114 42.59419 33881 ft 441 kts 278°
2026-04-21 20:12 59.70749 42.47310 33882 ft 442 kts 278°
2026-04-21 20:12 59.71369 42.35191 33885 ft 442 kts 278°
2026-04-21 20:13 59.71981 42.23061 33884 ft 442 kts 278°
2026-04-21 20:13 59.72585 42.10921 33887 ft 443 kts 278°
2026-04-21 20:14 59.73178 41.98784 33888 ft 443 kts 278°
2026-04-21 20:14 59.73760 41.86622 33889 ft 443 kts 278°
2026-04-21 20:15 59.74332 41.74458 33891 ft 443 kts 278°
2026-04-21 20:15 59.74894 41.62264 33891 ft 444 kts 277°
2026-04-21 20:16 59.75704 41.50153 33892 ft 442 kts 282°
2026-04-21 20:16 59.76753 41.38191 33896 ft 443 kts 283°
2026-04-21 20:17 59.77802 41.26131 33900 ft 443 kts 282°
2026-04-21 20:17 59.78810 41.14030 33901 ft 444 kts 282°
2026-04-21 20:18 59.79625 41.03970 33898 ft 445 kts 282°
2026-04-21 20:18 59.80759 40.89763 33897 ft 445 kts 282°
2026-04-21 20:19 59.81716 40.77610 33900 ft 446 kts 282°
2026-04-21 20:19 59.82663 40.65434 33906 ft 446 kts 282°
2026-04-21 20:20 59.83601 40.53244 33908 ft 446 kts 282°
2026-04-21 20:20 59.84527 40.41041 33904 ft 447 kts 282°
2026-04-21 20:21 59.85438 40.28895 33908 ft 447 kts 282°
2026-04-21 20:21 59.86344 40.16651 33911 ft 447 kts 282°
2026-04-21 20:22 59.87238 40.04413 33912 ft 447 kts 282°
2026-04-21 20:22 59.88558 39.86025 33913 ft 447 kts 282°
2026-04-21 20:23 59.89425 39.73755 33908 ft 447 kts 282°
2026-04-21 20:23 59.90281 39.61467 33909 ft 447 kts 282°
2026-04-21 20:24 59.91126 39.49167 33908 ft 448 kts 282°
2026-04-21 20:24 59.91955 39.36954 33909 ft 448 kts 282°
2026-04-21 20:25 59.92698 39.25823 33906 ft 448 kts 281°
2026-04-21 20:25 59.93500 39.13505 33902 ft 448 kts 281°
2026-04-21 20:26 59.94291 39.01168 33903 ft 448 kts 281°
2026-04-21 20:26 59.95071 38.88841 33906 ft 448 kts 281°
2026-04-21 20:27 59.95841 38.76512 33905 ft 448 kts 281°
2026-04-21 20:27 59.96599 38.64172 33896 ft 448 kts 281°
2026-04-21 20:28 59.97345 38.51831 33904 ft 448 kts 281°
2026-04-21 20:28 59.98081 38.39472 33899 ft 448 kts 281°
2026-04-21 20:29 59.98805 38.27108 33902 ft 448 kts 281°
2026-04-21 20:29 59.99513 38.14816 33903 ft 448 kts 281°
2026-04-21 20:30 60.00214 38.02442 33907 ft 448 kts 281°
2026-04-21 20:30 60.00904 37.90057 33911 ft 448 kts 281°
2026-04-21 20:31 60.01585 37.77658 33911 ft 448 kts 281°
2026-04-21 20:31 60.02259 37.65281 33917 ft 448 kts 281°
2026-04-21 20:32 60.02932 37.52905 33918 ft 448 kts 281°
2026-04-21 20:32 60.03590 37.40603 33924 ft 448 kts 281°
2026-04-21 20:33 60.04240 37.28220 33926 ft 448 kts 281°
2026-04-21 20:33 60.04878 37.15819 33930 ft 448 kts 281°
2026-04-21 20:34 60.05506 37.03424 33934 ft 448 kts 280°
2026-04-21 20:34 60.06115 36.90992 33942 ft 448 kts 280°
2026-04-21 20:35 60.06689 36.78556 33944 ft 449 kts 280°
2026-04-21 20:35 60.07250 36.66102 33946 ft 449 kts 280°
2026-04-21 20:36 60.07805 36.53618 33951 ft 449 kts 280°
2026-04-21 20:36 60.08346 36.41213 33959 ft 450 kts 280°
2026-04-21 20:37 60.08880 36.28718 33956 ft 450 kts 280°
2026-04-21 20:37 60.09403 36.16189 33966 ft 451 kts 279°
2026-04-21 20:38 60.09864 36.04925 33964 ft 451 kts 279°
2026-04-21 20:38 60.10370 35.92396 33963 ft 452 kts 279°
2026-04-21 20:39 60.10871 35.79819 33972 ft 452 kts 279°
2026-04-21 20:39 60.11361 35.67246 33978 ft 453 kts 279°
2026-04-21 20:40 60.11839 35.54662 33978 ft 453 kts 279°
2026-04-21 20:40 60.12305 35.42063 33974 ft 453 kts 279°
2026-04-21 20:41 60.12747 35.29722 33958 ft 431 kts 279°
2026-04-21 20:41 60.13166 35.17824 33978 ft 426 kts 279°
2026-04-21 20:42 60.13372 35.11950 33709 ft 430 kts 279°
2026-04-21 20:42 60.13577 35.05997 33438 ft 425 kts 279°
2026-04-21 20:42 60.13775 35.00110 33029 ft 421 kts 280°
2026-04-21 20:42 60.13969 34.94279 32691 ft 417 kts 280°
2026-04-21 20:43 60.14160 34.88488 32303 ft 414 kts 280°
2026-04-21 20:43 60.14347 34.82742 31943 ft 411 kts 280°
2026-04-21 20:43 60.14531 34.77031 31577 ft 409 kts 280°
2026-04-21 20:43 60.14711 34.71361 31222 ft 406 kts 280°
2026-04-21 20:44 60.14888 34.65722 30867 ft 403 kts 280°
2026-04-21 20:44 60.15062 34.60118 30516 ft 401 kts 280°
2026-04-21 20:44 60.15232 34.54527 30171 ft 399 kts 280°
2026-04-21 20:44 60.15399 34.48974 29774 ft 397 kts 280°
2026-04-21 20:45 60.15563 34.43467 29382 ft 394 kts 280°
2026-04-21 20:45 60.15722 34.37988 29038 ft 390 kts 280°
2026-04-21 20:45 60.15877 34.32596 28671 ft 387 kts 280°
2026-04-21 20:45 60.16030 34.27198 28323 ft 383 kts 280°
2026-04-21 20:46 60.16178 34.21942 27962 ft 381 kts 280°
2026-04-21 20:46 60.16324 34.16661 27622 ft 377 kts 280°
2026-04-21 20:46 60.16467 34.11415 27270 ft 375 kts 280°
2026-04-21 20:46 60.16606 34.06214 26931 ft 372 kts 279°
2026-04-21 20:47 60.16743 34.01040 26578 ft 369 kts 279°
2026-04-21 20:47 60.16877 33.95909 26251 ft 367 kts 279°
2026-04-21 20:47 60.17008 33.90810 25912 ft 364 kts 279°
2026-04-21 20:47 60.17136 33.85748 25579 ft 362 kts 279°
2026-04-21 20:48 60.17262 33.80698 25255 ft 360 kts 279°
2026-04-21 20:48 60.17385 33.75687 24920 ft 358 kts 279°
2026-04-21 20:48 60.17505 33.70705 24591 ft 356 kts 279°
2026-04-21 20:48 60.17622 33.65814 24271 ft 354 kts 279°
2026-04-21 20:49 60.17737 33.60887 23949 ft 352 kts 279°
2026-04-21 20:49 60.17850 33.55991 23620 ft 350 kts 279°
2026-04-21 20:49 60.17961 33.51113 23241 ft 349 kts 279°
2026-04-21 20:49 60.18069 33.46255 22879 ft 347 kts 279°
2026-04-21 20:50 60.18174 33.41448 22560 ft 343 kts 279°
2026-04-21 20:50 60.18277 33.36669 22223 ft 341 kts 279°
2026-04-21 20:50 60.18379 33.31945 21910 ft 338 kts 279°
2026-04-21 20:50 60.18478 33.27241 21582 ft 335 kts 279°
2026-04-21 20:51 60.18573 33.22566 21254 ft 333 kts 279°
2026-04-21 20:51 60.18640 33.17922 20938 ft 333 kts 274°
2026-04-21 20:51 60.18338 33.13286 20635 ft 337 kts 262°
2026-04-21 20:51 60.17730 33.08797 20337 ft 336 kts 259°
2026-04-21 20:52 60.17072 33.04300 20014 ft 335 kts 259°
2026-04-21 20:52 60.16409 32.99829 19710 ft 333 kts 259°
2026-04-21 20:52 60.15753 32.95382 19402 ft 331 kts 259°
2026-04-21 20:52 60.15106 32.90951 19095 ft 329 kts 259°
2026-04-21 20:53 60.14467 32.86554 18790 ft 328 kts 259°
2026-04-21 20:53 60.13832 32.82169 18488 ft 326 kts 259°
2026-04-21 20:53 60.13202 32.77813 18161 ft 325 kts 259°
2026-04-21 20:53 60.12573 32.73466 17822 ft 323 kts 259°
2026-04-21 20:54 60.11947 32.69150 17491 ft 321 kts 259°
2026-04-21 20:54 60.11326 32.64878 17193 ft 318 kts 259°
2026-04-21 20:54 60.10708 32.60631 16888 ft 316 kts 259°
2026-04-21 20:54 60.10093 32.56421 16596 ft 313 kts 259°
2026-04-21 20:55 60.09482 32.52246 16291 ft 311 kts 258°
2026-04-21 20:55 60.08873 32.48095 15993 ft 309 kts 258°
2026-04-21 20:55 60.08276 32.44028 15699 ft 307 kts 258°
2026-04-21 20:55 60.07674 32.39934 15414 ft 305 kts 258°
2026-04-21 20:56 60.07073 32.35868 15119 ft 303 kts 258°
2026-04-21 20:56 60.06475 32.31836 14834 ft 302 kts 258°
2026-04-21 20:56 60.05869 32.27821 14559 ft 301 kts 257°
2026-04-21 20:56 60.05207 32.23834 14310 ft 303 kts 255°
2026-04-21 20:57 60.04517 32.19825 14078 ft 305 kts 255°
2026-04-21 20:57 60.03825 32.15836 13880 ft 301 kts 255°
2026-04-21 20:57 60.03140 32.11883 13557 ft 300 kts 255°
2026-04-21 20:57 60.02460 32.07945 13221 ft 299 kts 255°
2026-04-21 20:58 60.01783 32.04025 12920 ft 297 kts 255°
2026-04-21 20:58 60.01110 32.00125 12603 ft 296 kts 255°
2026-04-21 20:58 60.00439 31.96235 12286 ft 295 kts 254°
2026-04-21 20:58 59.99779 31.92416 11981 ft 294 kts 254°
2026-04-21 20:59 59.99112 31.88562 11675 ft 293 kts 254°
2026-04-21 20:59 59.98446 31.84725 11374 ft 292 kts 254°
2026-04-21 20:59 59.97783 31.80903 11071 ft 291 kts 253°
2026-04-21 20:59 59.97121 31.77098 10775 ft 290 kts 253°
2026-04-21 21:00 59.96458 31.73302 10480 ft 289 kts 253°
2026-04-21 21:00 59.95798 31.69530 10188 ft 288 kts 253°
2026-04-21 21:00 59.95137 31.65758 9854 ft 289 kts 253°
2026-04-21 21:00 59.94472 31.61978 9517 ft 288 kts 253°
2026-04-21 21:01 59.93807 31.58201 9208 ft 287 kts 253°
2026-04-21 21:01 59.93147 31.54458 8912 ft 285 kts 253°
2026-04-21 21:01 59.92498 31.50787 8626 ft 283 kts 252°
2026-04-21 21:01 59.91845 31.47092 8338 ft 282 kts 252°
2026-04-21 21:02 59.91193 31.43419 8055 ft 280 kts 252°
2026-04-21 21:02 59.90546 31.39773 7783 ft 278 kts 252°
2026-04-21 21:02 59.89901 31.36144 7508 ft 277 kts 252°
2026-04-21 21:02 59.89260 31.32544 7236 ft 275 kts 252°
2026-04-21 21:03 59.88621 31.28961 6948 ft 274 kts 252°
2026-04-21 21:03 59.87983 31.25389 6681 ft 273 kts 252°
2026-04-21 21:03 59.87345 31.21835 6408 ft 272 kts 252°
2026-04-21 21:03 59.86710 31.18300 6123 ft 271 kts 252°
2026-04-21 21:04 59.86090 31.14781 5854 ft 268 kts 253°
2026-04-21 21:04 59.85542 31.11263 5643 ft 265 kts 255°
2026-04-21 21:04 59.85013 31.07746 5427 ft 265 kts 255°
2026-04-21 21:04 59.84491 31.04278 5202 ft 265 kts 255°
2026-04-21 21:05 59.83959 31.00770 4997 ft 265 kts 255°
2026-04-21 21:05 59.83432 30.97319 4772 ft 265 kts 255°
2026-04-21 21:05 59.82895 30.93815 4555 ft 264 kts 255°
2026-04-21 21:05 59.82359 30.90329 4334 ft 263 kts 255°
2026-04-21 21:06 59.81823 30.86855 4110 ft 262 kts 255°
2026-04-21 21:06 59.81285 30.83398 3900 ft 261 kts 255°
2026-04-21 21:06 59.80749 30.79951 3677 ft 260 kts 255°
2026-04-21 21:06 59.80215 30.76564 3479 ft 259 kts 253°
2026-04-21 21:07 59.79458 30.73330 3310 ft 256 kts 243°
2026-04-21 21:07 59.78592 30.70278 3144 ft 251 kts 243°
2026-04-21 21:07 59.77747 30.67296 2982 ft 245 kts 243°
2026-04-21 21:07 59.76933 30.64371 2835 ft 239 kts 244°
2026-04-21 21:08 59.76144 30.61506 2686 ft 234 kts 244°
2026-04-21 21:08 59.75383 30.58684 2558 ft 229 kts 249°
2026-04-21 21:08 59.75189 30.55757 2491 ft 209 kts 284°
2026-04-21 21:08 59.75479 30.52993 2507 ft 202 kts 285°
2026-04-21 21:09 59.75807 30.50302 2394 ft 199 kts 288°
2026-04-21 21:09 59.76173 30.47736 2154 ft 187 kts 289°
2026-04-21 21:09 59.76528 30.45321 1907 ft 177 kts 289°
2026-04-21 21:09 59.76858 30.43066 1707 ft 163 kts 289°
2026-04-21 21:10 59.77164 30.40986 1468 ft 153 kts 289°
2026-04-21 21:10 59.77459 30.38980 1241 ft 151 kts 288°
2026-04-21 21:10 59.77755 30.36969 1031 ft 152 kts 287°
2026-04-21 21:10 59.78053 30.34953 816 ft 151 kts 286°
2026-04-21 21:11 59.78344 30.32960 629 ft 149 kts 286°
2026-04-21 21:11 59.78635 30.30977 396 ft 149 kts 286°
2026-04-21 21:11 59.78921 30.29022 223 ft 147 kts 285°
2026-04-21 21:11 59.79205 30.27108 91 ft 137 kts 286°
2026-04-21 21:12 59.79437 30.25552 87 ft 100 kts 286°
2026-04-21 21:12 59.79593 30.24511 85 ft 58 kts 286°
2026-04-21 21:12 59.79677 30.23946 88 ft 37 kts 286°
2026-04-21 21:12 59.79746 30.23495 85 ft 28 kts 288°
2026-04-21 21:13 59.79845 30.23176 83 ft 26 kts 313°
2026-04-21 21:13 59.79938 30.23028 82 ft 15 kts 354°
2026-04-21 21:13 59.79967 30.23186 78 ft 14 kts 105°
2026-04-21 21:13 59.79939 30.23373 78 ft 14 kts 107°
2026-04-21 21:14 59.79912 30.23552 79 ft 13 kts 106°
2026-04-21 21:14 59.79887 30.23724 83 ft 13 kts 106°
2026-04-21 21:14 59.79862 30.23891 84 ft 12 kts 106°
2026-04-21 21:14 59.79838 30.24054 85 ft 12 kts 107°
2026-04-21 21:15 59.79814 30.24211 84 ft 12 kts 107°
2026-04-21 21:15 59.79793 30.24357 86 ft 12 kts 106°
2026-04-21 21:15 59.79771 30.24506 84 ft 11 kts 107°
2026-04-21 21:15 59.79749 30.24652 87 ft 11 kts 106°
2026-04-21 21:16 59.79728 30.24795 86 ft 11 kts 106°
2026-04-21 21:16 59.79707 30.24933 87 ft 10 kts 107°
2026-04-21 21:16 59.79687 30.25067 85 ft 10 kts 106°
2026-04-21 21:16 59.79668 30.25198 89 ft 10 kts 106°
2026-04-21 21:17 59.79656 30.25283 87 ft 10 kts 105°
2026-04-21 21:17 59.79635 30.25427 87 ft 9 kts 106°
2026-04-21 21:17 59.79617 30.25548 87 ft 9 kts 106°
2026-04-21 21:17 59.79600 30.25664 86 ft 9 kts 106°
2026-04-21 21:18 59.79584 30.25778 88 ft 8 kts 107°
2026-04-21 21:18 59.79566 30.25888 88 ft 8 kts 107°
2026-04-21 21:18 59.79580 30.25989 87 ft 8 kts 33°
2026-04-21 21:18 59.79635 30.26024 85 ft 8 kts 24°
2026-04-21 21:19 59.79684 30.26078 85 ft 8 kts 26°
2026-04-21 21:19 59.79720 30.26097 85 ft 8 kts 12°
2026-04-21 21:19 59.79762 30.26124 86 ft 4 kts 18°
2026-04-21 21:19 59.79782 30.26158 86 ft 4 kts 63°
2026-04-21 21:20 59.79775 30.26225 84 ft 4 kts 107°
2026-04-21 21:20 59.79769 30.26265 89 ft 3 kts 106°
2026-04-21 21:20 59.79766 30.26286 87 ft 1 kts 106°
2026-04-21 21:20 59.79765 30.26292 86 ft 0 kts 106°
2026-04-21 21:21 59.79765 30.26293 86 ft 0 kts 106°
2026-04-21 21:21 59.79764 30.26294 86 ft 0 kts 106°